This is the latest recevied weather packets stored in our database for station/object KD4WXI. If no packets are shown the sender has not sent any weather packets the latest 10 day(s).
| Time | Temp. | Humidity | Pressure | Rain* | Wind** | Luminosity | Snow |
|---|---|---|---|---|---|---|---|
| 1777627997 | 10.56° C | 67% | 1015.5 hPa | 0 mm | - | 0 W/m² | - |
| 1777627696 | 10.56° C | 68% | 1015.5 hPa | 0 mm | - | 0 W/m² | - |
| 1777627395 | 10.56° C | 68% | 1015.6 hPa | 0 mm | - | 0 W/m² | - |
| 1777627092 | 10.56° C | 65% | 1015.6 hPa | 0 mm | - | 0 W/m² | - |
| 1777626788 | 10.56° C | 67% | 1015.5 hPa | 0 mm | - | 0 W/m² | - |
| 1777626485 | 10.56° C | 65% | 1015.6 hPa | 0 mm | - | 0 W/m² | - |
| 1777626185 | 10.56° C | 63% | 1015.3 hPa | 0 mm | - | 0 W/m² | - |
| 1777625884 | 11.11° C | 63% | 1015.1 hPa | 0 mm | - | 0 W/m² | - |
| 1777625579 | 11.11° C | 61% | 1015.4 hPa | 0 mm | - | 0 W/m² | - |
| 1777625275 | 11.11° C | 60% | 1015.1 hPa | 0 mm | - | 0 W/m² | - |
| 1777624972 | 11.11° C | 62% | 1015.3 hPa | 0 mm | - | 0 W/m² | - |
| 1777624669 | 11.11° C | 61% | 1015.7 hPa | 0 mm | - | 0 W/m² | - |
| 1777624364 | 11.11° C | 60% | 1015.7 hPa | 0 mm | - | 0 W/m² | - |
| 1777624061 | 11.11° C | 63% | 1015.6 hPa | 0 mm | - | 0 W/m² | - |
| 1777623758 | 10.56° C | 62% | 1015.5 hPa | 0 mm | - | 0 W/m² | - |
| 1777623455 | 10.56° C | 63% | 1015.1 hPa | 0 mm | - | 0 W/m² | - |
| 1777623152 | 11.11° C | 63% | 1015.1 hPa | 0 mm | - | 0 W/m² | - |
| 1777622849 | 11.11° C | 63% | 1015.5 hPa | 0 mm | - | 0 W/m² | - |
| 1777622546 | 11.11° C | 63% | 1015.1 hPa | 0 mm | - | 0 W/m² | - |
| 1777622243 | 11.11° C | 63% | 1015.5 hPa | 0 mm | - | 0 W/m² | - |
| 1777621940 | 11.11° C | 63% | 1015.3 hPa | 0 mm | - | 0 W/m² | - |
| 1777621635 | 11.11° C | 64% | 1015.4 hPa | 0 mm | - | 0 W/m² | - |
| 1777621332 | 11.11° C | 64% | 1015.2 hPa | 0 mm | - | 0 W/m² | - |
| 1777621027 | 10.56° C | 65% | 1015.4 hPa | 0 mm | - | 0 W/m² | - |
| 1777620723 | 11.11° C | 66% | 1015.4 hPa | 0 mm | - | 0 W/m² | - |
* Rain latest hour (hover to see other rain measurements)
** Current wind speed in m/s (hover to see current wind gust speed)